Vorticity
3 8 10 9 7 1 10 15 -13 10 19 -3 9 1 10 11 10 11 12 8 8 11 12 10 4 -3 1 8 2 24 15 17 13 11 1 14 29 15 5 7 13 25 13 7
-1 8 8 9 9 13 9 -5 -2 4 -5 -14 -7 12 5 7 5 4 7 14 14 15 9 8 14 9 4 5 8 11 14 8 22 4 3 12 19 14 9 29 19 31 67 31
12 19 24 34 14 20 18 29 16 11 15 20 0 7 6 -0 4 5 5 5 15 18 29 14 11 9 13 9 6 11 19 33 9 8 15 11 3 4 2 12 9 12 49 -16
5 20 18 15 15 16 11 22 29 15 13 3 8 5 12 10 20 18 17 8 1 7 10 29 15 4 12 16 27 7 3 4 4 0 13 12 20 9 75 10 32 31 32 31
1 5 -17 2 -9 10 4 6 14 15 4 5 20 24 5 13 6 6 12 12 9 19 1 10 31 4 12 8 31 7 5 17 14 2 13 28 13 10 20 8 24 7 8 8
11 5 8 7 26 16 21 20 8 9 28 10 3 6 5 10 14 12 9 11 23 17 4 19 30 12 4 10 22 -13 25 8 -6 19 -6 10 14 17 23 13 3 5 27 20
6 -2 20 -6 9 0 28 -3 20 4 2 5 10 3 8 5 0 0 6 12 12 19 13 30 11 16 11 18 5 34 15 10 14 13 17 26 21 25 26 31 38 38 16 16
30 13 26 25 24 5 19 5 4 7 5 6 4 3 5 9 2 1 19 7 9 20 31 26 7 16 -4 9 17 -7 37 13 8 9 3 7 15 13 16 19 11 12 19 10
4 17 1 -0 11 6 6 6 10 -1 0 3 3 2 -2 8 -1 4 13 17 16 1 40 56 1 15 8 -1 30 9 23 17 18 22 21 30 24 17 4 1 3 -6 -6 -1
0 17 4 3 2 1 -1 3 9 6 4 4 5 4 5 -2 7 17 12 18 22 31 8 59 14 10 14 -1 25 26 10 4 2 13 11 13 10 11 14 10 9 8 9 9
7 10 13 3 -4 3 8 5 -0 0 2 5 6 3 6 10 3 10 12 28 12 44 49 59 20 13 10 -9 5 13 9 12 10 13 9 12 11 11 11 11 8 8 10 11
3 6 4 4 9 11 12 11 13 16 17 19 16 10 4 7 2 2 26 45 30 55 11 28 28 15 16 38 43 4 17 6 11 10 3 9 13 12 13 14 14 14 15 14
-0 2 8 11 5 9 20 14 13 13 18 18 19 20 16 7 4 3 23 9 45 40 -29 21 -12 31 15 18 21 20 0 12 2 9 10 11 12 8 9 13 14 10 7 9
14 12 8 19 20 19 16 10 10 18 37 45 33 26 8 2 -0 25 51 9 -2 45 44 40 21 10 17 20 26 4 2 -7 19 16 10 10 12 13 12 9 8 8 7 7
10 17 9 6 8 24 16 15 15 18 12 19 13 6 4 -6 30 50 32 16 11 17 30 19 15 26 6 17 8 15 16 11 8 11 13 12 11 11 12 9 7 6 5 5
11 10 15 23 30 13 7 11 20 15 6 10 10 5 1 30 51 43 24 16 18 16 9 13 2 7 12 10 10 9 10 13 14 13 13 12 10 7 6 5 6 6 7 7
6 15 12 7 22 17 13 9 3 18 14 1 1 0 1 18 24 17 24 10 7 10 10 9 11 10 9 8 13 15 12 11 12 11 10 8 6 5 5 6 5 6 5 6
10 13 8 12 6 6 21 20 13 8 23 16 14 9 10 11 21 16 6 9 10 10 10 10 11 11 11 11 11 10 9 9 10 9 9 8 7 6 5 5 6 7 8 8
11 11 12 11 9 10 13 15 32 12 11 20 14 11 8 24 30 12 2 10 12 12 11 11 10 10 10 10 10 11 11 10 9 8 7 6 6 7 7 7 6 6 5 6
7 8 10 13 12 9 6 13 31 32 10 16 7 13 8 14 48 -6 6 7 7 11 9 10 11 12 11 10 10 10 9 9 8 8 6 5 5 3 2 3 4 5 6 5
6 6 11 11 14 11 11 14 30 18 11 15 11 8 7 7 50 27 -17 14 9 9 9 10 11 10 9 10 10 10 9 8 8 7 5 4 5 4 4 4 3 4 4 3
5 6 10 10 11 14 11 10 13 21 17 16 10 8 -2 15 45 23 -2 13 7 9 10 10 10 10 9 8 8 7 7 6 6 6 6 6 5 5 6 7 9 10 11 11
6 8 9 9 9 12 13 10 8 16 17 17 8 13 -0 14 31 41 -7 3 8 8 9 11 12 11 10 10 9 9 8 7 6 4 5 9 12 13 13 11 10 11 12 15
7 8 9 9 8 7 10 12 10 7 14 17 12 14 10 14 17 28 32 4 -6 4 9 8 9 8 8 8 6 4 1 5 10 11 11 9 4 12 17 15 14 15 17 18
8 9 10 10 8 6 7 8 12 11 9 7 11 12 10 7 4 15 35 22 3 5 9 11 9 6 6 5 2 4 11 11 11 9 6 13 17 14 14 12 14 16 16 20
8 7 8 10 9 6 5 7 10 11 11 11 10 6 9 11 14 16 18 18 26 22 20 9 10 7 3 4 3 11 11 10 10 14 17 11 9 8 9 12 14 18 20 19
9 5 10 11 9 8 7 8 9 11 10 11 11 15 13 6 7 7 10 11 13 19 25 18 11 13 15 15 14 8 9 13 17 14 8 9 9 9 11 12 13 13 13 18
Height
2911 2913 2915 2915 2916 2915 2917 2917 2917 2907 2909 2908 2911 2915 2915 2913 2909 2906 2908 2910 2908 2910 2910 2911 2910 2909 2907 2908 2908 2907 2905 2907 2908 2910 2912 2915 2918 2921 2926 2929 2932 2935 2941 2942
2908 2910 2913 2912 2912 2912 2913 2911 2899 2904 2903 2906 2909 2910 2909 2907 2902 2901 2902 2902 2900 2900 2900 2901 2900 2899 2898 2896 2897 2897 2898 2899 2901 2902 2903 2905 2907 2911 2915 2917 2920 2925 2924 2926
2905 2906 2907 2906 2902 2902 2900 2897 2898 2900 2901 2903 2904 2903 2902 2901 2898 2896 2895 2894 2892 2890 2889 2889 2889 2888 2887 2887 2889 2888 2890 2891 2892 2893 2894 2894 2898 2900 2903 2907 2909 2910 2910 2919
2903 2904 2906 2896 2895 2895 2893 2892 2894 2896 2899 2899 2897 2896 2896 2894 2889 2889 2888 2886 2883 2882 2880 2879 2879 2880 2878 2880 2879 2881 2883 2886 2885 2886 2885 2885 2890 2892 2889 2897 2902 2899 2910 2911
2902 2900 2897 2894 2893 2893 2891 2891 2892 2893 2894 2893 2890 2888 2889 2890 2887 2883 2881 2878 2873 2872 2870 2869 2870 2872 2871 2874 2874 2873 2875 2877 2877 2878 2879 2879 2883 2884 2887 2890 2895 2895 2899 2907
2899 2898 2896 2890 2889 2889 2890 2889 2890 2889 2888 2887 2885 2883 2882 2882 2879 2876 2872 2869 2865 2861 2859 2858 2862 2862 2864 2866 2866 2866 2869 2871 2872 2873 2877 2880 2882 2882 2884 2886 2888 2891 2892 2900
2894 2894 2889 2887 2887 2888 2890 2891 2886 2885 2884 2882 2880 2879 2874 2872 2869 2865 2860 2856 2852 2848 2847 2849 2852 2853 2855 2858 2859 2862 2863 2864 2867 2870 2872 2875 2877 2879 2880 2882 2885 2888 2892 2897
2890 2890 2888 2884 2884 2886 2886 2884 2883 2881 2879 2876 2874 2871 2868 2864 2859 2855 2849 2844 2840 2835 2833 2838 2840 2843 2847 2849 2850 2855 2858 2860 2862 2866 2869 2872 2875 2879 2879 2883 2886 2891 2893 2900
2885 2883 2882 2881 2882 2882 2881 2879 2879 2876 2874 2871 2867 2863 2861 2856 2851 2844 2838 2832 2827 2822 2819 2823 2828 2832 2837 2841 2844 2847 2851 2857 2860 2863 2865 2869 2874 2878 2882 2885 2890 2893 2895 2901
2881 2881 2880 2880 2880 2879 2877 2875 2873 2871 2868 2864 2860 2856 2852 2849 2842 2836 2828 2822 2814 2810 2808 2808 2814 2821 2828 2835 2839 2843 2848 2854 2858 2861 2864 2868 2873 2878 2882 2886 2889 2891 2896 2900
2878 2878 2877 2878 2877 2874 2872 2869 2866 2863 2859 2855 2852 2848 2846 2840 2835 2829 2820 2811 2803 2799 2796 2796 2806 2815 2822 2829 2834 2839 2845 2850 2856 2859 2862 2865 2871 2877 2881 2883 2886 2889 2892 2896
2874 2874 2872 2871 2870 2867 2863 2859 2857 2852 2847 2846 2842 2839 2837 2833 2829 2822 2811 2804 2796 2794 2796 2800 2806 2811 2815 2824 2827 2834 2841 2847 2853 2857 2861 2866 2869 2874 2879 2883 2884 2888 2892 2897
2871 2869 2866 2864 2861 2859 2855 2851 2848 2844 2839 2832 2831 2830 2829 2827 2823 2814 2806 2802 2795 2793 2796 2800 2807 2811 2815 2818 2827 2833 2839 2846 2852 2856 2860 2863 2868 2870 2877 2880 2882 2886 2891 2896
2865 2862 2860 2859 2853 2851 2848 2845 2841 2835 2829 2823 2822 2824 2824 2821 2815 2807 2800 2800 2800 2796 2793 2798 2803 2808 2815 2821 2827 2834 2841 2847 2852 2857 2861 2863 2865 2872 2877 2879 2883 2887 2892 2895
2861 2858 2855 2851 2848 2845 2842 2838 2835 2832 2828 2824 2823 2823 2821 2815 2806 2800 2798 2801 2802 2802 2801 2802 2808 2812 2818 2824 2830 2837 2843 2848 2852 2855 2857 2862 2867 2872 2876 2881 2885 2889 2891 2892
2858 2855 2852 2847 2843 2840 2838 2835 2831 2829 2827 2825 2823 2821 2817 2811 2802 2798 2800 2804 2807 2807 2808 2810 2814 2819 2824 2829 2835 2840 2843 2847 2850 2854 2858 2863 2868 2873 2877 2881 2884 2885 2887 2887
2855 2852 2849 2845 2841 2838 2835 2832 2829 2827 2825 2824 2821 2819 2816 2812 2809 2806 2806 2808 2810 2813 2814 2816 2821 2825 2829 2833 2837 2841 2845 2848 2852 2857 2862 2865 2869 2873 2875 2877 2878 2879 2881 2882
2853 2849 2846 2842 2839 2836 2833 2829 2826 2825 2822 2822 2821 2820 2818 2814 2814 2811 2812 2814 2816 2818 2820 2822 2825 2829 2833 2836 2840 2844 2847 2851 2855 2858 2862 2865 2868 2870 2872 2873 2875 2876 2877 2877
2850 2847 2844 2840 2837 2834 2830 2826 2823 2823 2821 2821 2820 2819 2818 2816 2815 2816 2818 2819 2821 2822 2824 2826 2828 2832 2834 2838 2842 2845 2849 2853 2856 2858 2861 2863 2865 2868 2869 2871 2872 2873 2873 2873
2848 2845 2842 2839 2835 2833 2830 2825 2821 2820 2820 2820 2820 2820 2818 2816 2817 2819 2820 2822 2823 2825 2826 2828 2831 2833 2836 2839 2843 2846 2849 2852 2855 2857 2860 2863 2865 2867 2869 2869 2869 2869 2870 2870
2846 2844 2841 2838 2834 2832 2829 2826 2822 2821 2821 2820 2820 2820 2820 2818 2817 2818 2821 2823 2825 2826 2828 2830 2832 2834 2836 2839 2842 2846 2848 2851 2854 2857 2859 2862 2863 2864 2864 2865 2865 2865 2864 2863
2844 2842 2839 2837 2834 2831 2829 2826 2824 2822 2821 2820 2820 2819 2819 2819 2817 2818 2821 2823 2825 2827 2829 2830 2832 2835 2837 2839 2842 2845 2848 2850 2853 2855 2856 2857 2858 2859 2858 2858 2858 2857 2856 2855
2841 2839 2838 2836 2833 2831 2828 2826 2824 2823 2822 2821 2820 2819 2818 2818 2817 2818 2821 2823 2825 2827 2829 2831 2832 2835 2837 2839 2841 2844 2846 2847 2849 2850 2851 2852 2852 2852 2851 2851 2849 2848 2847 2846
2838 2837 2835 2834 2832 2830 2828 2826 2824 2823 2822 2822 2821 2820 2819 2818 2818 2818 2818 2820 2823 2826 2828 2830 2832 2834 2835 2837 2839 2841 2843 2844 2845 2845 2846 2846 2846 2845 2844 2843 2842 2840 2839 2837
2833 2832 2831 2830 2829 2828 2826 2825 2823 2822 2821 2821 2820 2820 2819 2819 2818 2818 2818 2820 2822 2824 2826 2828 2829 2831 2834 2835 2837 2838 2839 2840 2840 2840 2840 2840 2840 2839 2838 2836 2835 2834 2832 2830
2828 2827 2827 2826 2825 2824 2823 2822 2822 2820 2819 2819 2819 2819 2819 2819 2818 2817 2817 2817 2818 2819 2821 2823 2826 2827 2828 2830 2831 2833 2834 2834 2835 2835 2836 2836 2835 2834 2832 2831 2830 2829 2827 2824
2822 2821 2821 2820 2820 2819 2819 2818 2818 2817 2816 2815 2816 2816 2816 2816 2817 2816 2816 2816 2817 2817 2818 2820 2822 2823 2824 2826 2827 2829 2830 2830 2831 2831 2832 2831 2830 2827 2828 2828 2827 2826 2823 2821